sat.trackr.live / text

‹ back to catalog

STARLINK-35375

NORAD 66065 · 2025-235H

PAYLOAD ACTIVE UNKNOWN

§ Identity

Operator
Country
US
Launch date
2025-10-19
Launch site
AFETR
Launch vehicle
Mass (kg)
RCS (m²)

Purposes: comms

External: N2YO · Heavens-Above · Gunter

§ Orbital elements

Epoch: 2026-05-25T00:34:57.652032Z

Period
94.11 min
Inclination
53.1588°
Eccentricity
0.0001343
Mean motion
15.30202435 rev/d
Perigee alt
474.3 km
Apogee alt
476.1 km
Semi-major
6,853.3 km
B*
5.7930e-4
RAAN
251.0576°
Arg perigee
96.8630°
Mean anomaly
263.2523°
Rev number
3,460

§ Raw data

STARLINK-353751 66065U 25235H   26145.02427838  .00016838  00000+0  57930-3 0  99942 66065  53.1588 251.0576 0001343  96.8630 263.2523 15.30202435 34605

JSON: /api/v1/satellites/66065 · /tle

For live sub-satellite position, see the globe view (requires WebGL).

§ Visibility from observer

Set your observer location to see the next 7 days of passes ≥ 10°. The values pass through the URL so the page stays shareable.

No JS? Fill the form by hand. The geolocation button needs JavaScript.